Regional Weather Roundup
Issued by NWS

Home | Current Version | Previous Version | Graphics & Text | Print | Product List | Glossary On
Versions: 1 2 3 4 5 6 7 8 9 10 11 12 13 14 15 16 17 18 19 20 21 22 23 24 25 26 27 28 29 30 31 32 33 34 35 36 37 38 39 40 41 42 43 44 45 46 47 48 49 50
000
ASUS43 KLOT 300207
RWRIL

ILLINOIS REGIONAL WEATHER ROUNDUP
NATIONAL WEATHER SERVICE CHICAGO/ROMEOVILLE IL
900 PM CDT SAT APR 29 2017

NOTE: "FAIR" INDICATES FEW OR NO CLOUDS BELOW 12,000 FEET WITH NO
SIGNIFICANT WEATHER AND/OR OBSTRUCTIONS TO VISIBILITY.

* THESE STATIONS ARE NOT UNDER NWS QUALITY CONTROL. THEY ALSO MAY NOT
  REPORT WEATHER SUCH AS PRECIPITATION OR FOG.

ILZ001-002-007-009-015-016-024-300300-
NORTHWEST ILLINOIS

CITY           SKY/WX    TMP DP  RH WIND       PRES   REMARKS
MOLINE         CLOUDY    42  38  85 NE16      30.00R
STERLING*      CLOUDY    41  38  89 NE16G33   29.98R
SAVANNA*       CLOUDY    41  37  85 N15       30.05R
$$

ILZ003-004-008-010-011-017-018-300300-
NORTH CENTRAL ILLINOIS

CITY           SKY/WX    TMP DP  RH WIND       PRES   REMARKS
ROCKFORD       CLOUDY    41  37  86 NE21G32   29.99F
FREEPORT*      CLOUDY    38  36  94 NE23G29   30.02R WCI  27
ROCHELLE*      RAIN      39  38  98 NE26G40   29.94S WCI  28
DE KALB*       LGT RAIN  40  39  97 NE30G41   29.92F
PERU*          LGT RAIN  41  40  95 E21G37    29.92R
$$

ILZ005-006-012>014-019>023-300300-
NORTHEAST ILLINOIS

CITY           SKY/WX    TMP DP  RH WIND       PRES   REMARKS
CHICAGO-OHARE  HVY RAIN  44  41  89 NE24G36   29.99F FOG
CHICAGO-MIDWAY RAIN      46  44  93 NE31G45   29.96F FOG
AURORA         HVY RAIN  44  41  89 NE31G41   29.92F FOG
LANSING*       CLOUDY    45  45 100 NE25G39   29.91F
JOLIET*        HVY RAIN  45  45  99 NE32G43   29.88F VSB 1
WAUKEGAN       LGT RAIN  41  40  96 NE16G28   30.06F
DUPAGE AIRPORT HVY RAIN  42  42 100 NE29G38   29.95F FOG
WHEELING       LGT RAIN  42  42 100 NE21G31   30.03F
MORRIS*        LGT RAIN  44  42  94 NE8G23    29.92R
ROMEOVILLE*    LGT SNOW  44  44 100 NE33G43   29.87F
NORTHERLY ISL    N/A     44  43  96 N23         N/A
$$

LMZ740>746-300300-
SOUTHERN LAKE MICHIGAN

STATION/POSITION SKY/WX   TEMP    WIND        PRES    VSBY  WAVE
                          AIR SEA DIR/SP/G                  HT/PER
                          (F)     (DEG/KT/KT) (MB)    (MI)  (FT/S)
SOUTHERN BUOY              41 41   30/ 16/ 17 1022.2          5/ 7
HARRISON CRIB              44      30/ 32/ 36   N/A
BURNHAM HARBOR             44      30/ 24/ 31   N/A
CALUMET HARBOR             44      20/ 24/ 33 1015.2F
BURNS HARBOR               45      10/ 26     1017.6
MICHIGAN CITY              46      30/ 26/ 31   N/A
MICHIGAN CITY 6N           46 47                N/A           9/ 6
ST. JOSEPH                 48 49   80/ 21/ 29 1017.9          6/ 7
$$

ILZ025>027-034>036-040-047-049-050-058-095>099-300300-
WEST-CENTRAL ILLINOIS

CITY           SKY/WX    TMP DP  RH WIND       PRES   REMARKS
QUINCY         LGT RAIN  44  43  96 N10       29.92R
GALESBURG*     DRIZZLE   42  41  97 NE14G22   29.95S
MACOMB*        DRIZZLE   43  43  99 N12       29.98R
JACKSONVILLE*  TSTM      44  43  97 NE6       29.88S
PITTSFIELD*    CLOUDY    45  44  97 N7        29.94R
$$

ILZ028>032-037-038-041>044-048-051>054-059>061-300300-
CENTRAL ILLINOIS

CITY           SKY/WX    TMP DP  RH WIND       PRES   REMARKS
PONTIAC        RAIN      46  45  98 NE15      29.95F
BLOOMINGTON    RAIN      45  44  97 NE24      29.88F
DECATUR        LGT RAIN  52  52 100 SW6       29.87R
PEORIA         CLOUDY    44  42  93 NE25G31   29.90R
LACON*         CLOUDY    44  43  97 E21G31    29.90R
LINCOLN*       RAIN      47  46  99 NE12G18   29.86S
SPRINGFIELD    TSTM      47  45  93 NE6       29.87S
TAYLORVILLE    LGT RAIN  47  46  98 CALM      29.88S
$$

ILZ033-039-045-046-055>057-062-063-300300-
EAST-CENTRAL ILLINOIS

CITY           SKY/WX    TMP DP  RH WIND       PRES   REMARKS
CHAMPAIGN      LGT RAIN  60  58  92 S13       29.89R
RANTOUL*       RAIN      60  60  98 S13       29.88R
MATTOON        RAIN      62  61  96 S9        29.89R
PARIS*         RAIN     N/A N/A N/A SE8       29.92R
$$

ILZ079-100>102-300300-
SOUTHWEST ILLINOIS

CITY           SKY/WX    TMP DP  RH WIND       PRES   REMARKS
ALTON          CLOUDY    52  50  93 W12       29.90R
BELLEVILLE     LGT RAIN  61  61 100 N12       29.85R
CAHOKIA*       TSTM      58  56  93 NW9       29.88R
$$

ILZ064>066-069>071-074>076-080>082-084>086-088>090-092>094-300300-
SOUTH-CENTRAL ILLINOIS

CITY           SKY/WX    TMP DP  RH WIND       PRES   REMARKS
CARBONDALE     LGT RAIN  63  63 100 E6        29.89R FOG
CAIRO*         CLOUDY    69  62  78 N13       29.88R
EFFINGHAM*     HVY RAIN  64  64 100 S5        29.91S
MARION         RAIN      64  64 100 SE5       29.92S
MT. VERNON     LGT RAIN  63  63 100 SE3       29.89S
CENTRALIA*     RAIN      64  64  98 CALM      29.87F
SALEM*         RAIN      65  63  93 CALM      29.88S
METROPOLIS*    CLOUDY    74  64  71 N9G20     29.89R
$$

ILZ067-068-072-073-078-083-087-091-300300-
SOUTHEAST ILLINOIS

CITY           SKY/WX    TMP DP  RH WIND       PRES   REMARKS
LAWRENCEVILLE  LGT RAIN  66  63  90 NW16      29.91R
FLORA*         CLOUDY    65  64  93 SW3       29.90R
FAIRFIELD*     TSTM      64  64 100 CALM      29.91R
HARRISBURG*    CLOUDY    64  63  97 N8        29.91F
ROBINSON*      TSTM      64  63  96 W6        29.93R
CARMI*         CLOUDY    66  63  90 NW14G28   29.93R
$$

ABBREVIATIONS USED IN REMARKS
   TC - TEMPERATURE IN CELSIUS
  WCI - WIND CHILL INDEX
   HX - HEAT INDEX
  VSB - VISIBILITY
$$




USA.gov is the U.S. government's official web portal to all federal, state and local government web resources and services.